Simultaneous Nadir Overpasses (SNOs) Predictions

Prediction of SNOs between NOAA-15 and METOP-C Satellite Orbit:

Table of predicted SNOs for the next 14.0 days since TLE Epoch: 10/9/2021
Index Date (NOAA-15) Time (NOAA-15) Lat,Lon (NOAA-15) SZA (NOAA-15 ) Date (METOP-C) Time (METOP-C) Lat,Lon (METOP-C) SZA (METOP-C ) Distance(km) Time Diff (sec)
1 10/14/2021 03:14:41 -81.01, -10.69 88.61 10/14/2021 03:13:32 -81.02, -10.59 88.62 2.04 69
2 10/14/2021 04:05:11 81.03, 156.43 91.39 10/14/2021 04:04:12 81.02, 156.60 91.38 2.96 59
3 10/14/2021 04:55:43 -81.01, -35.91 88.58 10/14/2021 04:54:54 -81.02, -36.07 88.61 2.90 49
4 10/14/2021 05:46:13 81.02, 131.22 91.42 10/14/2021 05:45:34 81.01, 131.12 91.39 2.05 39
5 10/14/2021 06:36:46 -81.03, -61.49 88.58 10/14/2021 06:36:16 -81.01, -61.54 88.60 1.72 30
6 10/14/2021 07:27:15 81.02, 106.00 91.45 10/14/2021 07:26:55 81.02, 106.01 91.44 0.20 20
7 10/14/2021 08:17:48 -81.03, -86.71 88.55 10/14/2021 08:17:37 -81.02, -86.65 88.55 1.09 11
8 10/14/2021 09:08:17 81.02, 80.78 91.48 10/14/2021 09:08:16 81.03, 80.90 91.50 2.44 1
9 10/14/2021 09:58:50 -81.02,-111.93 88.52 10/14/2021 09:58:58 -81.03,-111.76 88.49 3.16 8
10 10/14/2021 10:49:19 81.02, 55.57 91.51 10/14/2021 10:49:38 81.03, 55.42 91.51 2.68 19
11 10/14/2021 11:39:52 -81.02,-137.15 88.49 10/14/2021 11:40:20 -81.03,-137.24 88.48 1.55 28
12 10/14/2021 12:30:22 81.03, 29.98 91.51 10/14/2021 12:31:00 81.02, 29.94 91.52 1.46 38
13 10/14/2021 13:20:55 -81.04,-162.74 88.49 10/14/2021 13:21:42 -81.02,-162.71 88.47 1.73 47
14 10/14/2021 14:11:24 81.03, 4.77 91.54 10/14/2021 14:12:21 81.03, 4.84 91.57 1.18 57
15 10/14/2021 15:01:57 -81.03, 172.04 88.46 10/14/2021 15:03:03 -81.03, 172.18 88.42 2.46 66



Historial Predications of SNOs between NOAA-15 and METOP-C
